sat.trackr.live / text

‹ back to catalog

STARLINK-4400

NORAD 53468 · 2022-099D

PAYLOAD ACTIVE UNKNOWN

§ Identity

Operator
Country
US
Launch date
2022-08-12
Launch site
AFWTR
Launch vehicle
Mass (kg)
RCS (m²)

Purposes: comms

External: N2YO · Heavens-Above · Gunter

§ Orbital elements

Epoch: 2026-05-25T01:13:17.602752Z

Period
95.64 min
Inclination
97.4467°
Eccentricity
0.0001222
Mean motion
15.05644193 rev/d
Perigee alt
548.7 km
Apogee alt
550.4 km
Semi-major
6,927.7 km
B*
1.1064e-4
RAAN
265.0256°
Arg perigee
115.1488°
Mean anomaly
244.9866°
Rev number
20,746

§ Raw data

STARLINK-44001 53468U 22099D   26145.05089818  .00001538  00000+0  11064-3 0  99962 53468  97.4467 265.0256 0001222 115.1488 244.9866 15.05644193207462

JSON: /api/v1/satellites/53468 · /tle

For live sub-satellite position, see the globe view (requires WebGL).

§ Visibility from observer

Set your observer location to see the next 7 days of passes ≥ 10°. The values pass through the URL so the page stays shareable.

No JS? Fill the form by hand. The geolocation button needs JavaScript.

§ Radio — SatNOGS DB

ModeDescriptionDownlinkUplink
CW Ku-band 11325 MHz beacon 11.325 GHz
CW Ku-band 11575 MHz beacon 11.575 GHz
CW Ku-band 11950 MHz beacon 11.950 GHz
CW Ku-band 12450 MHz beacon 12.450 GHz

4 transmitters · refreshed weekly from db.satnogs.org